MPEC 2001-V58 : 2000 WO107
The following Minor Planet Electronic Circular may be linked-to from your own Web pages, but must not otherwise be redistributed electronically.A form allowing access to any MPEC is at the bottom of this page.


M.P.E.C. 2001-V58 Issued 2001 Nov. 14, 19:55 UT The Minor Planet Electronic Circulars contain information on unusual minor planets and routine data on comets. They are published on behalf of Commission 20 of the International Astronomical Union by the Minor Planet Center, Smithsonian Astrophysical Observatory, Cambridge, MA 02138, U.S.A. Prepared using the Tamkin Foundation Computer Network MPC@CFA.HARVARD.EDU URL http://cfa-www.harvard.edu/iau/mpc.html ISSN 1523-6714 2000 WO107 Revision to MPEC 2000-X08 Observations: K00WA7O HC2001 11 12.45033 08 52 02.24 +21 05 44.3 19.4 V 291 K00WA7O HC2001 11 12.45735 08 52 01.83 +21 05 48.8 19.1 V 291 K00WA7O HC2001 11 12.46430 08 52 01.39 +21 05 54.2 18.6 V 291 K00WA7O HC2001 11 14.46290 08 49 54.18 +21 29 52.3 21.7 V 291 K00WA7O HC2001 11 14.47221 08 49 53.46 +21 29 59.9 21.4 V 291 Observer details: 291 LPL/Spacewatch II. Observers J. A. Larsen, R. S. McMillan. 1.8-m Spacewatch telescope. Orbital elements: 2000 WO107 PHA 0.002 Epoch 2001 Oct. 18.0 TT = JDT 2452200.5 MPC M 63.60959 (2000.0) P Q n 1.13285426 Peri. 213.53080 +0.21955760 +0.96731313 a 0.9113531 Node 69.43262 -0.86267803 +0.25323375 e 0.7807409 Incl. 7.78887 -0.45561066 -0.01334088 P 0.87 H 19.4 G 0.15 U 5 Residuals in seconds of arc 001129 704 0.4+ 0.3+ 001201 108 1.5- 1.2- 001206 639 0.4- 0.6+ 001129 704 0.4+ 0.5+ 001201 108 0.7+ 0.2- 001206 639 0.5- 0.2- 001129 704 0.3+ 0.2+ 001201 108 0.9+ 0.5+ 001206 639 1.0- 0.1- 001129 704 0.3+ 0.7+ 001201 108 0.4- 0.7- 001206 639 1.3+ 0.8+ 001129 704 0.4+ 0.6+ 001203 739 0.5- 0.9- 001206 046 0.3+ 0.1+ 001130 557 0.0 0.2+ 001203 739 0.0 0.7- 001206 046 0.0 0.2- 001130 557 0.2- 0.2+ 001203 739 0.1+ 0.4- 001206 046 0.0 0.0 001130 557 0.3- 0.2+ 001203 750 0.0 0.3- 001206 046 0.1- 0.0 001130 557 0.3- 0.3+ 001203 750 0.2+ 0.4- 001206 046 0.2+ 0.0 001130 557 0.4- 0.3+ 001203 750 0.2- 0.3- 001206 046 0.1+ 0.1+ 001130 557 0.6- 0.4+ 001203 750 0.3+ 0.5+ 001207 322 0.0 1.8- 001130 557 0.3- 0.1+ 001203 750 0.2+ 0.1- 001207 322 1.3- 0.1- 001130 704 0.1+ 0.4+ 001203 750 0.7- 0.2- 001207 322 (2.1+ 2.2-) 001130 704 0.3+ 0.5+ 001203 750 0.3- 0.1- 001207 322 0.8- 1.4+ 001130 704 0.2+ 0.3+ 001203 750 0.4- 0.2- 001208 860 0.6- 0.6- 001130 704 0.5+ 0.4+ 001203 750 0.1- 0.2+ 001208 860 0.5- 0.6+ 001130 704 0.2+ 0.8+ 001203 750 0.1- 0.0 001208 860 0.0 1.1+ 001130 704 0.4+ 0.6+ 001203 750 0.8- 0.1- 001208 860 0.1+ 0.2+ 001130 919 0.0 0.9- 001203 750 0.2- 0.2+ 001208 860 0.9- 0.6+ 001130 704 0.3- 0.8+ 001203 750 0.3+ 0.1- 001211 413 0.3+ 0.2- 001130 919 0.5- 0.3+ 001203 300 0.3- 0.1- 001211 413 0.6+ 0.3- 001130 919 1.3+ 0.7- 001203 300 0.3+ 0.0 001211 413 0.0 0.2- 001130 919 0.0 0.0 001203 300 0.1+ 0.2- 001213 322 1.6+ 0.0 001130 704 0.1+ 0.6+ 001203 300 0.0 0.2- 001213 322 1.0+ 1.5+ 001130 711 0.1+ 0.1- 001203 300 0.1- 0.1+ 001213 322 1.0+ 0.1+ 001130 711 0.1+ 0.1+ 001203 300 0.4+ 0.2- 001215 402 0.1- 0.3- 001130 711 0.5+ 0.0 001203 300 0.5+ 0.1- 001215 402 0.0 0.4- 001201 595 0.4- 0.5- 001203 300 0.0 0.3- 001215 402 0.1+ 0.3- 001201 595 0.2+ 1.4- 001203 300 0.1+ 0.2- 001220 704 0.4- 0.1+ 001201 046 0.2- 0.2- 001203 300 0.8+ 0.1- 001220 704 0.1+ 0.3+ 001201 046 0.7- 0.1- 001203 349 0.3+ 0.4+ 001220 704 0.3+ 1.0- 001201 046 0.5- 0.1- 001203 349 0.6- 0.1+ 001220 704 0.5- 0.4- 001201 046 0.3- 0.1- 001203 349 0.2- 0.1+ 001220 704 0.0 0.1- 001201 046 0.3- 0.1- 001203 349 0.1- 0.7+ 001221 360 0.2+ 0.2- 001201 046 0.4- 0.0 001204 402 0.0 0.3- 001221 360 0.4+ 0.2- 001201 595 0.1+ 0.8- 001204 402 0.5+ 0.3- 001221 360 0.2+ 0.0 001201 595 0.0 1.1- 001204 402 0.1+ 0.3- 001223 587 0.4- 0.0 001201 595 0.2+ 0.7- 001205 355 0.3- 0.0 001223 587 0.2- 0.3- 001201 704 0.1+ 0.1+ 001205 355 0.1- 0.1- 001228 711 0.2+ 0.1+ 001201 704 0.9+ 0.7+ 001205 355 0.3- 0.3- 001228 711 0.3+ 0.3+ 001201 704 1.4+ 0.2- 001205 355 0.3- 0.2- 001228 711 0.5+ 0.1+ 001201 711 0.1+ 0.8- 001205 355 0.1- 0.5- 001230 704 0.2- 0.3- 001201 704 0.1- 0.2+ 001205 360 0.2+ 0.1- 001230 704 0.2+ 0.1- 001201 711 0.3+ 0.7- 001205 360 0.3+ 0.2- 001230 704 0.8+ 0.6+ 001201 711 0.1+ 0.6- 001205 360 0.1- 0.1- 011112 291 0.3+ 1.1+ 001201 704 0.3- 0.2+ 001205 113 0.4+ 0.3- 011112 291 0.7+ 0.7+ 001201 900 0.3+ 0.1+ 001205 113 0.3+ 0.1- 011112 291 0.7+ 1.2+ 001201 900 0.1+ 0.2+ 001205 113 0.2+ 0.1- 011114 291 0.2- 0.8+ 001201 596 1.4- 1.2+ 001205 113 0.2+ 0.2- 011114 291 0.8- 1.4+ 001201 596 0.3- 0.1+ 001206 639 0.5- 1.0+ 001201 596 0.4+ 0.6+ 001206 639 0.4+ 0.4+ Ephemeris: 2000 WO107 a,e,i = 0.91, 0.78, 8 q = 0.1998 Date TT R. A. (2000) Decl. Delta r Elong. Phase V 2001 11 07 08 56.32 +20 08.1 0.785 1.305 93.8 49.3 21.3 2001 11 17 08 46.73 +22 02.6 0.723 1.380 106.5 43.4 21.1 2001 11 27 08 28.16 +24 37.1 0.661 1.445 121.3 35.7 20.8 2001 12 07 07 57.81 +27 41.7 0.611 1.498 138.4 25.9 20.4 2001 12 17 07 14.96 +30 36.9 0.586 1.542 157.4 14.2 20.0 2001 12 27 06 25.01 +32 22.4 0.597 1.575 170.9 5.6 19.7 2002 01 06 05 38.70 +32 33.3 0.645 1.600 158.1 13.3 20.2 2002 01 16 05 03.99 +31 42.8 0.726 1.616 141.4 22.3 20.8 2002 01 26 04 42.30 +30 36.9 0.828 1.623 126.9 29.0 21.3 2002 02 05 04 31.23 +29 40.9 0.941 1.621 114.4 33.6 21.7 2002 02 15 04 27.98 +29 01.8 1.059 1.610 103.6 36.6 22.0 Timothy B. Spahr (C) Copyright 2001 MPC M.P.E.C. 2001-V58


Enter an MPEC number in one of the following forms:
- 1997-B01 (the full form)
- J97B01 (the packed version of the full form)
- B01 (the abbreviated form)